Retour au catalogue

LEMUR 2 CAEL

ActifScienceSSO
NORAD 58903·PAYLOAD·🇺🇸 United States

Lancé Jan 31, 2024 depuis Rocket Lab Launch Complex 1

Loading…

Prochains Passages (prochaines 24 heures)

TLE

FraisSource: Space-Track

Époque: Sep 14, 2026, 00:50 UTC

1 58903U 24022E   26257.03500284  .00015047  00000-0  33612-3 0  9994
2 58903  97.3973 109.3179 0008345 126.6179 233.5838 15.43586777146036

Suivez LEMUR 2 CAEL en temps réel avec AllMySat

Download on the App Store